Regional Weather Roundup
Issued by NWS Cleveland, OH

Home | Current Version | Previous Version | Text Only | Print | Product List | Glossary Off
Versions: 1 2 3 4 5 6 7 8 9 10 11 12 13 14 15 16 17 18 19 20 21 22 23 24 25 26 27 28 29 30 31 32 33 34 35 36 37 38 39 40 41 42 43 44 45 46 47 48 49 50

000
ASUS41 KCLE 220502
RWRCLE
OHIO REGIONAL WEATHER ROUNDUP
NATIONAL WEATHER SERVICE CLEVELAND, OH
1200 AM EST MON DEC 22 2014

NOTE: "FAIR" INDICATES FEW OR NO CLOUDS BELOW 12,000 FEET WITH NO
SIGNIFICANT WEATHER AND/OR OBSTRUCTIONS TO VISIBILITY.

OHZ001>008-015>018-024>027-034-035-043-044-220600-
   NORTHWEST OHIO

CITY           SKY/WX    TMP DP  RH WIND       PRES   REMARKS
DEFIANCE       MOCLDY    27  22  81 E5        30.16F WCI  22
FINDLAY        PTCLDY    29  22  75 E8        30.14F WCI  21
TOLEDO EXPRESS PTCLDY    26  22  84 CALM      30.17F FOG
TOLEDO EXEC    PTCLDY    25  20  81 E7        30.18F HAZE    WCI  17
LIMA           PTCLDY    29  22  75 SE7       30.13F WCI  22
$$

OHZ009>014-019>023-028>033-038-089-220600-
   NORTHEAST OHIO

CITY           SKY/WX    TMP DP  RH WIND       PRES   REMARKS
CLE-HOPKINS    PTCLDY    26  20  77 SE5       30.22F WCI  20
CLE-LAKEFRONT  PTCLDY    30  21  69 E3        30.20F
CUY CO. ARPT   NOT AVBL
LORAIN-ELYRIA  CLEAR     23  20  88 SE3       30.19F
ASHTABULA      PTCLDY    28  21  75 SE6       30.22F WCI  22
AKRON-CANTON   CLEAR     26  20  77 E7        30.17F WCI  18
WOOSTER        CLEAR     22  18  85 E6        30.17F WCI  14
MANSFIELD      CLEAR     23  20  88 E6        30.14F WCI  16
YOUNGSTOWN     PTCLDY    25  20  81 E7        30.19F WCI  17
$$

OHZ042-051>053-060>062-070>072-077>081-220600-
  SOUTHWEST OHIO

CITY           SKY/WX    TMP DP  RH WIND       PRES   REMARKS
CINC-COVINGTON PTCLDY    29  22  75 E6        30.10F WCI  23
CINC-LUNKEN    CLEAR     22  19  89 CALM      30.15F
HAMILTON       CLEAR     22  20  92 CALM      30.14F FOG
DAYTON         PTCLDY    27  23  85 E7        30.12F WCI  19
WRIGHT-PAT AFB CLEAR     25  22  88 NE3       30.13F
DAYTON GENERAL CLEAR     29  24  82 E8        30.10F WCI  21
WILMINGTON     CLEAR     27  23  85 E7        30.11F WCI  19
$$

OHZ036-037-039>041-045>050-054>059-063>069-073>076-082>088-220600-
  CENTRAL AND SOUTHEAST OHIO

CITY           SKY/WX    TMP DP  RH WIND       PRES   REMARKS
COLUMBUS       MOCLDY    28  22  78 E6        30.14F WCI  22
OSU AIRPORT    CLEAR     25  21  85 E5        30.14F WCI  19
BOLTON FIELD   NOT AVBL
RICKENBACK AFB NOT AVBL
NEWARK         CLEAR     25  21  85 N3        30.15F
MARION         CLEAR     23  19  85 E3        30.15F FOG
LANCASTER      CLEAR     26  20  77 CALM      30.15F HAZE
ZANESVILLE     CLEAR     25  20  81 NE3       30.15F
NEW PHILLY     CLEAR     23  19  85 CALM      30.18F FOG
$$


USA.gov is the U.S. government's official web portal to all federal, state and local government web resources and services.